{"data":{"norad_id":47382,"intl_designator":"2021-005AK","name":"STARLINK-2102","alt_names":[],"object_type":"PAYLOAD","status":"ACTIVE","operator":null,"country":"US","launch_date":"2021-01-20","launch_site_code":"AFETR","launch_vehicle":null,"mission":null,"orbit_class":"UNKNOWN","rcs_meters":null,"size_class":null,"mass_kg":null,"dimensions":null,"purposes":["comms"],"wikipedia_slug":null,"has_3d_model":false,"image_url":null,"decayed_at":null,"tle_current":{"epoch":"2026-05-25T02:49:36.983424Z","epoch_age_seconds":60955,"freshness":"FRESH","line1":"1 47382U 21005AK  26145.11778916  .00003156  00000+0  11341-3 0  9997","line2":"2 47382  53.1613  31.0743 0001123  97.3028 262.8101 15.31704601295249","mean_motion":15.31704601,"eccentricity":0.0001123,"inclination_deg":53.1613,"raan_deg":31.0743,"arg_perigee_deg":97.3028,"mean_anomaly_deg":262.8101,"bstar":0.00011341,"rev_number":29524,"period_min":94.012905560241,"perigee_km":469.95715257206,"apogee_km":471.49540726473,"semimajor_km":6848.8632799184,"source":"CELESTRAK","updated_at":"2026-05-25T13:38:16.550658Z"}}}